User: anonymous   Login
Location: Unspecified
(0.0000°N, 0.0000°E)
Time: 05:13:00
(UTC+00:00)
Language:

UME 1 - Orbit

View from above orbital plane
View from above orbital plane
View from above satellite
View from above satellite

Ground track
Ground track

The orbit data is extracted from the following two-line orbital elements,

1  8709U 76019A   18267.48477060 -.00000036 +00000-0 +17515-4 0  9990
2  8709 069.6720 257.1718 0008637 047.5100 121.8846 13.71408775130319
Epoch (UTC): 24 September 2018 11:38:04
Eccentricity: 0.0008637
inclination: 69.6720°
perigee height: 988 km
apogee height: 1001 km
right ascension of ascending node: 257.1718°
argument of perigee: 47.5100°
revolutions per day: 13.71408775
mean anomaly at epoch: 121.8846°
orbit number at epoch: 13031

The dashed part of the orbit path shows where the satellite is in the earth's shadow,  

DLR